SEH9594 LGMT-LGHI

Flight info

Callsign SEH9594
Flight time 0h 24m
Altitude 10000
Route RIKSO DCT MARIK
Aircraft A20N/M-SDE2E3FGHIJ1RWXY/LB1

Departure

Time 2026-04-25 09:53
Airport Mytilene International Airport (LGMT)

Arrival

Time 2026-04-25 10:17
Airport Chios Island National Airport (LGHI)
Time Latitude Longitude Altitude Speed Heading
2026-04-25 09:34 39.06140 26.59797 51 ft 0 kts 40°
2026-04-25 09:37 39.06142 26.59798 51 ft 0 kts 40°
2026-04-25 09:38 39.06141 26.59801 50 ft 1 kts 66°
2026-04-25 09:38 39.06131 26.59840 51 ft 7 kts 98°
2026-04-25 09:38 39.06142 26.59877 51 ft 0 kts 58°
2026-04-25 09:46 39.06141 26.59875 51 ft 3 kts 58°
2026-04-25 09:46 39.06130 26.59851 47 ft 3 kts 58°
2026-04-25 09:46 39.06119 26.59826 48 ft 3 kts 74°
2026-04-25 09:47 39.06116 26.59798 49 ft 3 kts 97°
2026-04-25 09:47 39.06122 26.59771 49 ft 3 kts 120°
2026-04-25 09:47 39.06135 26.59749 48 ft 1 kts 141°
2026-04-25 09:50 39.06135 26.59750 48 ft 2 kts 141°
2026-04-25 09:50 39.06062 26.59807 50 ft 21 kts 163°
2026-04-25 09:50 39.05909 26.59786 48 ft 25 kts 175°
2026-04-25 09:50 39.05742 26.59892 43 ft 29 kts 147°
2026-04-25 09:51 39.05558 26.60039 36 ft 33 kts 148°
2026-04-25 09:51 39.05356 26.60204 31 ft 35 kts 148°
2026-04-25 09:51 39.05174 26.60350 27 ft 32 kts 148°
2026-04-25 09:51 39.04981 26.60499 24 ft 24 kts 150°
2026-04-25 09:52 39.04886 26.60554 19 ft 5 kts 114°
2026-04-25 09:52 39.04892 26.60563 19 ft 0 kts 27°
2026-04-25 09:52 39.04910 26.60554 19 ft 9 kts 336°
2026-04-25 09:52 39.05074 26.60424 26 ft 61 kts 328°
2026-04-25 09:53 39.05629 26.59983 38 ft 123 kts 327°
2026-04-25 09:53 39.06491 26.59306 134 ft 162 kts 330°
2026-04-25 09:53 39.07492 26.58552 669 ft 167 kts 331°
2026-04-25 09:53 39.08501 26.57767 1367 ft 166 kts 328°
2026-04-25 09:54 39.09371 26.56990 1792 ft 149 kts 327°
2026-04-25 09:54 39.10270 26.56178 1935 ft 170 kts 327°
2026-04-25 09:54 39.11320 26.55254 2616 ft 193 kts 327°
2026-04-25 09:54 39.12499 26.54211 3381 ft 218 kts 327°
2026-04-25 09:55 39.13803 26.53060 4166 ft 241 kts 327°
2026-04-25 09:55 39.15268 26.51779 4938 ft 262 kts 327°
2026-04-25 09:55 39.16821 26.50416 5797 ft 276 kts 324°
2026-04-25 09:55 39.18062 26.48535 6864 ft 280 kts 296°
2026-04-25 09:56 39.18547 26.46110 7895 ft 284 kts 270°
2026-04-25 09:56 39.18173 26.43658 8864 ft 286 kts 244°
2026-04-25 09:56 39.17012 26.41531 9601 ft 291 kts 226°
2026-04-25 09:56 39.15528 26.39811 9883 ft 290 kts 216°
2026-04-25 09:57 39.13905 26.38255 9993 ft 292 kts 215°
2026-04-25 09:57 39.12318 26.36745 10028 ft 291 kts 215°
2026-04-25 09:57 39.10623 26.35137 10025 ft 321 kts 215°
2026-04-25 09:57 39.08762 26.33380 10021 ft 335 kts 215°
2026-04-25 09:58 39.07009 26.31724 10012 ft 324 kts 215°
2026-04-25 09:58 39.05235 26.30045 10022 ft 311 kts 216°
2026-04-25 09:58 39.03497 26.28401 10024 ft 311 kts 215°
2026-04-25 09:58 39.01735 26.26735 10026 ft 317 kts 215°
2026-04-25 09:59 38.99900 26.24999 10014 ft 334 kts 215°
2026-04-25 09:59 38.98064 26.23261 10016 ft 320 kts 215°
2026-04-25 09:59 38.96324 26.21612 10018 ft 303 kts 215°
2026-04-25 09:59 38.94665 26.20035 10020 ft 290 kts 215°
2026-04-25 10:00 38.92989 26.18445 10019 ft 318 kts 215°
2026-04-25 10:00 38.91136 26.16694 10016 ft 334 kts 215°
2026-04-25 10:00 38.89305 26.14966 10013 ft 319 kts 215°
2026-04-25 10:00 38.87562 26.13319 10016 ft 303 kts 215°
2026-04-25 10:01 38.85911 26.11760 10014 ft 287 kts 215°
2026-04-25 10:01 38.84294 26.10234 10021 ft 310 kts 215°
2026-04-25 10:01 38.82476 26.08522 10012 ft 331 kts 215°
2026-04-25 10:01 38.80658 26.06812 10012 ft 326 kts 215°
2026-04-25 10:02 38.78814 26.05079 10017 ft 331 kts 215°
2026-04-25 10:02 38.76961 26.03335 10023 ft 330 kts 215°
2026-04-25 10:02 38.75110 26.01594 10010 ft 330 kts 215°
2026-04-25 10:02 38.73255 25.99847 10020 ft 330 kts 215°
2026-04-25 10:03 38.71403 25.98098 10013 ft 331 kts 215°
2026-04-25 10:03 38.69481 25.96517 10016 ft 329 kts 202°
2026-04-25 10:03 38.67342 25.95837 10012 ft 328 kts 186°
2026-04-25 10:03 38.65030 25.95596 10014 ft 327 kts 182°
2026-04-25 10:04 38.62756 25.95440 10023 ft 327 kts 182°
2026-04-25 10:04 38.60484 25.95246 10026 ft 327 kts 183°
2026-04-25 10:04 38.58212 25.95000 9989 ft 328 kts 184°
2026-04-25 10:04 38.55952 25.94718 9893 ft 323 kts 184°
2026-04-25 10:05 38.53757 25.94424 9786 ft 311 kts 185°
2026-04-25 10:05 38.51642 25.94136 9661 ft 300 kts 185°
2026-04-25 10:05 38.49604 25.93857 9496 ft 290 kts 184°
2026-04-25 10:05 38.47623 25.93589 9285 ft 282 kts 184°
2026-04-25 10:06 38.45676 25.93326 9163 ft 283 kts 184°
2026-04-25 10:06 38.43709 25.93063 9027 ft 284 kts 184°
2026-04-25 10:06 38.42414 25.92890 8948 ft 282 kts 184°
2026-04-25 10:06 38.40014 25.92568 8786 ft 281 kts 184°
2026-04-25 10:07 38.38066 25.92306 8574 ft 282 kts 184°
2026-04-25 10:07 38.36111 25.92044 8222 ft 282 kts 184°
2026-04-25 10:07 38.34170 25.91783 7863 ft 280 kts 184°
2026-04-25 10:07 38.32889 25.91610 7623 ft 279 kts 184°
2026-04-25 10:08 38.30322 25.91265 7141 ft 276 kts 184°
2026-04-25 10:08 38.28417 25.91009 6787 ft 274 kts 184°
2026-04-25 10:08 38.26518 25.90754 6426 ft 275 kts 184°
2026-04-25 10:08 38.24619 25.90504 6115 ft 272 kts 182°
2026-04-25 10:09 38.22812 25.90869 5907 ft 260 kts 150°
2026-04-25 10:09 38.21880 25.91777 5771 ft 254 kts 130°
2026-04-25 10:09 38.20628 25.94245 5511 ft 249 kts 117°
2026-04-25 10:09 38.20094 25.95553 5368 ft 246 kts 116°
2026-04-25 10:10 38.19304 25.97435 5151 ft 235 kts 118°
2026-04-25 10:10 38.18503 25.99192 4950 ft 224 kts 120°
2026-04-25 10:10 38.17708 26.00836 4744 ft 214 kts 121°
2026-04-25 10:10 38.16922 26.02398 4551 ft 207 kts 122°
2026-04-25 10:11 38.16180 26.03853 4373 ft 185 kts 121°
2026-04-25 10:11 38.15458 26.05263 4177 ft 188 kts 121°
2026-04-25 10:11 38.14785 26.06591 3964 ft 170 kts 117°
2026-04-25 10:11 38.14631 26.07969 3742 ft 153 kts 74°
2026-04-25 10:12 38.15100 26.09113 3538 ft 145 kts 51°
2026-04-25 10:12 38.15876 26.09971 3350 ft 150 kts 32°
2026-04-25 10:12 38.17827 26.10839 2942 ft 149 kts 13°
2026-04-25 10:13 38.18820 26.11059 2748 ft 148 kts 11°
2026-04-25 10:13 38.19779 26.11243 2559 ft 148 kts 10°
2026-04-25 10:13 38.20802 26.11435 2357 ft 146 kts 10°
2026-04-25 10:13 38.21747 26.11617 2173 ft 133 kts 10°
2026-04-25 10:14 38.22643 26.11775 1956 ft 130 kts
2026-04-25 10:14 38.23563 26.11920 1754 ft 132 kts
2026-04-25 10:14 38.24457 26.12072 1551 ft 132 kts
2026-04-25 10:14 38.25358 26.12240 1352 ft 131 kts 10°
2026-04-25 10:15 38.26250 26.12415 1134 ft 129 kts 10°
2026-04-25 10:15 38.27135 26.12593 943 ft 127 kts 10°
2026-04-25 10:15 38.27992 26.12764 721 ft 123 kts 10°
2026-04-25 10:15 38.28853 26.12939 537 ft 128 kts 10°
2026-04-25 10:16 38.29695 26.13128 607 ft 121 kts 13°
2026-04-25 10:16 38.30530 26.13296 632 ft 123 kts
2026-04-25 10:16 38.31396 26.13428 600 ft 128 kts
2026-04-25 10:16 38.32261 26.13596 423 ft 120 kts 12°
2026-04-25 10:17 38.33071 26.13779 235 ft 123 kts 11°
2026-04-25 10:17 38.33936 26.13971 60 ft 125 kts 11°
2026-04-25 10:17 38.34726 26.14140 19 ft 88 kts
2026-04-25 10:17 38.35014 26.14216 18 ft 0 kts
2026-04-25 10:18 38.35016 26.14213 18 ft 1 kts 338°
2026-04-25 10:18 38.35010 26.14203 20 ft 2 kts 221°
2026-04-25 10:18 38.34954 26.14191 20 ft 12 kts 189°
2026-04-25 10:18 38.34856 26.14171 20 ft 17 kts 189°
2026-04-25 10:19 38.34727 26.14143 21 ft 21 kts 191°
2026-04-25 10:19 38.34577 26.14123 18 ft 22 kts 159°
2026-04-25 10:19 38.34451 26.14222 17 ft 15 kts 153°
2026-04-25 10:19 38.34433 26.14219 17 ft 0 kts 229°